Location: Saint-Palais-sur-Mer
(45.6429°N, 1.0859°W)
Time: 23:16:13
(UTC+01:00)

S-56A Canister/Altair - Pass Details

Date: 16 February 2026
Orbit: 633 x 2484 km, 38.9° (Epoch: 11 March)

Event Time Altitude Azimuth Distance (km) Brightness Sun altitude
Exits shadow 05:01:03 51° 202° (SSW) 2,084 9.3 -32.6°
Maximum altitude 05:01:32 52° 193° (SSW) 2,104 9.4 -32.5°
Drops below altitude 10° 05:13:48 10° 124° (ESE) 4,791 12.0 -30.4°
Sets 05:18:07 0° 120° (ESE) 5,968 12.7 -29.7°
